Tracking 29892 objects as of 21-Nov-2024
HD Live streaming from Space Station
objects crossing your sky now

STARLINK 1029

Track STARLINK 1029 now!
10-day predictions
STARLINK 1029 is classified as:


NORAD ID: 44734
Int'l Code: 2019-074X
Perigee: 553.4 km
Apogee: 555.3 km
Inclination: 53.1 °
Period: 95.6 minutes
Semi major axis: 6925 km
RCS: Unknown
Launch date: November 11, 2019
Source: United States (US)
Launch site: AIR FORCE EASTERN TEST RANGE (AFETR)
Your satellite tracking list
Your tracking list is empty




NASA's NSSDC Master Catalog

Two Line Element Set (TLE):
1 44734U 19074X   24325.30614222  .00000771  00000-0  70642-4 0  9997
2 44734  53.0546  76.2082 0001317  84.2417 275.8722 15.06400983278343
Source of the keplerian elements: AFSPC